GW2591 Weather Reports


time (UTC)temp
C
wind
direction
speed
KPH
gust
KPH
rain 1hr
cm
rain 24hr
cm
rain mn
cm
humidity
%
barometer
mb
20260508185434 11 202 6.4 17.7 0.00 0.30 0.30 85 1010.6
20260508184931 11 207 12.9 20.9 0.00 0.30 0.30 85 1010.6
20260508184429 11 213 9.7 17.7 0.00 0.30 0.30 85 1010.8
20260508183925 10 199 9.7 22.5 0.00 0.30 0.30 85 1010.6
20260508183422 10 217 8.0 14.5 0.05 0.30 0.30 85 1010.5
20260508182917 11 214 11.3 16.1 0.18 0.30 0.30 85 1010.6
20260508182415 11 238 8.0 14.5 0.05 0.28 0.28 85 1010.7
20260508181909 11 223 12.9 22.5 0.05 0.28 0.28 83 1010.8
20260508181407 11 237 8.0 22.5 0.05 0.28 0.28 83 1010.9
20260508180904 11 225 11.3 24.1 0.13 0.28 0.28 82 1011.1
20260508180401 12 218 9.7 22.5 0.05 0.25 0.25 81 1010.9
20260508175857 12 224 8.0 17.7 0.00 0.25 0.25 78 1010.8
20260508175353 12 234 11.3 17.7 0.05 0.25 0.25 77 1010.8
20260508174852 12 232 8.0 22.5 0.05 0.25 0.25 76 1010.6
20260508174349 12 276 19.3 24.1 0.00 0.23 0.23 73 1011.1
20260508173845 12 254 9.7 16.1 0.00 0.23 0.23 73 1010.9
20260508173342 12 222 9.7 17.7 0.00 0.23 0.23 71 1010.5
20260508172837 12 231 6.4 20.9 0.00 0.23 0.23 71 1010.8
20260508172335 13 223 6.4 17.7 0.00 0.23 0.23 72 1010.8
20260508171832 13 200 6.4 22.5 0.00 0.23 0.23 74 1010.7
20260508171328 12 159 6.4 24.1 0.00 0.23 0.23 74 1011.0
20260508170825 12 212 20.9 24.1 0.00 0.23 0.23 75 1011.0
20260508170323 12 207 9.7 25.7 0.00 0.23 0.23 75 1011.2
20260508165819 12 233 11.3 20.9 0.00 0.23 0.23 74 1011.3
20260508165317 11 215 12.9 24.1 0.00 0.23 0.23 77 1011.4
20260508164812 11 222 8.0 16.1 0.00 0.23 0.23 79 1011.4
20260508164309 11 211 6.4 17.7 0.05 0.23 0.23 78 1011.4
20260508163808 10 209 4.8 19.3 0.13 0.23 0.23 79 1011.4
20260508163305 10 209 6.4 19.3 0.13 0.23 0.23 77 1011.7
20260508162800 11 222 6.4 19.3 0.05 0.23 0.23 76 1011.9
20260508162257 11 225 11.3 17.7 0.05 0.20 0.20 75 1012.1
20260508161754 11 216 8.0 17.7 0.05 0.20 0.20 74 1011.9
20260508161251 11 218 6.4 14.5 0.00 0.20 0.20 74 1012.1
20260508160749 11 253 17.7 25.7 0.00 0.20 0.20 71 1012.2
20260508160248 11 229 9.7 19.3 0.00 0.20 0.20 72 1012.1
20260508155744 11 252 14.5 25.7 0.00 0.20 0.20 70 1012.1
20260508155241 11 259 8.0 20.9 0.00 0.20 0.20 71 1012.1
20260508154737 11 227 11.3 19.3 0.00 0.20 0.20 69 1011.8
20260508154235 11 241 14.5 24.1 0.00 0.20 0.20 69 1012.0
20260508153731 11 246 16.1 22.5 0.00 0.20 0.20 71 1012.0
20260508153229 11 248 16.1 20.9 0.00 0.20 0.20 70 1011.9
20260508152725 11 250 16.1 25.7 0.00 0.20 0.20 69 1012.0
20260508152221 11 249 12.9 19.3 0.00 0.20 0.20 71 1011.8
20260508151718 11 251 12.9 29.0 0.00 0.20 0.20 70 1011.7
20260508151214 11 261 20.9 32.2 0.00 0.20 0.20 68 1011.8
20260508150711 11 261 29.0 32.2 0.00 0.20 0.20 68 1011.8
20260508150208 12 238 27.4 27.4 0.00 0.20 0.20 68 1011.9
20260508145703 12 240 22.5 27.4 0.00 0.20 0.20 67 1011.9
20260508145200 12 239 14.5 29.0 0.00 0.20 0.20 68 1011.9
20260508144658 12 243 17.7 27.4 0.00 0.20 0.20 67 1011.9
20260508144155 12 241 6.4 24.1 0.00 0.20 0.20 69 1011.9
20260508143653 11 259 9.7 29.0 0.00 0.20 0.20 69 1012.0
20260508143150 11 250 14.5 32.2 0.00 0.20 0.20 69 1011.8
20260508142645 11 249 12.9 25.7 0.00 0.20 0.20 68 1011.6
20260508142143 11 225 11.3 20.9 0.00 0.20 0.20 71 1011.9
20260508141639 11 239 27.4 32.2 0.00 0.20 0.20 69 1012.0
20260508141137 11 251 12.9 35.4 0.00 0.20 0.20 69 1012.0
20260508140634 11 248 12.9 24.1 0.00 0.20 0.20 69 1012.0
20260508140131 11 249 19.3 20.9 0.00 0.20 0.20 71 1011.6
20260508135626 11 235 19.3 27.4 0.00 0.20 0.20 68 1011.7
20260508135122 11 261 8.0 25.7 0.00 0.20 0.20 69 1011.9
20260508134619 11 249 32.2 32.2 0.00 0.20 0.20 68 1012.0
20260508134116 11 252 24.1 27.4 0.00 0.20 0.20 68 1012.0
20260508133613 11 246 17.7 25.7 0.00 0.20 0.20 67 1012.0
20260508133110 11 265 17.7 30.6 0.00 0.20 0.20 68 1012.0
20260508132608 11 259 11.3 17.7 0.00 0.20 0.20 69 1011.9
20260508132105 11 256 17.7 25.7 0.00 0.20 0.20 68 1011.9
20260508131600 11 249 16.1 24.1 0.00 0.20 0.20 68 1012.0
20260508131057 11 254 20.9 25.7 0.00 0.20 0.20 68 1011.8
20260508130554 11 264 20.9 27.4 0.00 0.20 0.20 68 1012.2
20260508130050 11 289 12.9 27.4 0.00 0.20 0.20 68 1012.0
20260508125546 11 251 17.7 33.8 0.00 0.20 0.20 68 1012.1
20260508125044 11 261 25.7 35.4 0.00 0.20 0.20 66 1012.0
20260508124542 10 259 20.9 24.1 0.00 0.20 0.20 69 1012.1
20260508124038 10 238 8.0 20.9 0.00 0.20 0.20 70 1011.8
20260508123537 10 238 6.4 19.3 0.00 0.20 0.20 70 1012.0
20260508123033 10 248 14.5 17.7 0.00 0.20 0.20 71 1011.9
20260508122530 9 252 9.7 20.9 0.00 0.20 0.20 71 1012.0
20260508122027 9 249 12.9 19.3 0.00 0.20 0.20 72 1011.9
20260508121526 9 227 6.4 14.5 0.00 0.20 0.20 72 1011.8
20260508121023 9 261 11.3 17.7 0.00 0.20 0.20 71 1011.9
20260508120520 9 239 11.3 24.1 0.00 0.20 0.20 71 1011.9
20260508120019 8 238 17.7 17.7 0.00 0.20 0.20 72 1012.0
20260508115516 8 242 11.3 20.9 0.00 0.20 0.20 73 1011.9
20260508115012 8 241 6.4 14.5 0.00 0.20 0.20 73 1011.8
20260508114509 8 230 8.0 19.3 0.00 0.20 0.20 72 1011.6
20260508114005 8 220 8.0 16.1 0.00 0.20 0.20 72 1011.7
20260508113503 8 237 8.0 17.7 0.00 0.20 0.20 72 1011.6
20260508113000 8 230 4.8 12.9 0.00 0.20 0.20 72 1011.5
20260508112457 8 218 6.4 14.5 0.00 0.20 0.20 71 1011.3
20260508111954 8 228 4.8 12.9 0.00 0.20 0.20 71 1011.2
20260508111450 8 202 8.0 14.5 0.00 0.20 0.20 71 1011.1
20260508110948 8 205 8.0 12.9 0.00 0.20 0.20 71 1011.2
20260508110445 8 221 11.3 17.7 0.00 0.20 0.20 72 1010.9
20260508105945 8 216 6.4 17.7 0.00 0.20 0.20 72 1010.9
20260508105441 8 225 4.8 16.1 0.00 0.20 0.20 72 1010.9
20260508104939 8 221 8.0 22.5 0.00 0.20 0.20 72 1010.9
20260508104436 8 211 11.3 27.4 0.00 0.20 0.20 74 1011.0
20260508103933 8 213 9.7 20.9 0.00 0.20 0.20 74 1011.0
20260508103430 7 210 4.8 20.9 0.00 0.20 0.20 74 1010.9
20260508102927 7 221 9.7 20.9 0.00 0.20 0.20 76 1011.1
20260508102425 7 214 11.3 22.5 0.00 0.20 0.20 77 1010.9
20260508101922 7 205 9.7 17.7 0.00 0.20 0.20 78 1010.9
20260508101420 7 202 11.3 12.9 0.00 0.20 0.20 79 1010.9
20260508100916 7 208 9.7 16.1 0.00 0.20 0.20 80 1011.0
20260508100416 7 206 11.3 14.5 0.00 0.20 0.20 80 1011.0
20260508095911 7 205 11.3 14.5 0.00 0.20 0.20 81 1010.9
20260508095409 7 194 9.7 14.5 0.00 0.20 0.20 81 1011.1
20260508094905 7 193 4.8 11.3 0.00 0.20 0.20 81 1011.0
20260508094402 7 197 6.4 11.3 0.00 0.20 0.20 82 1011.3
20260508093859 7 159 4.8 9.7 0.00 0.20 0.20 82 1011.1
20260508093357 7 204 8.0 11.3 0.00 0.20 0.20 81 1011.2
20260508092854 7 190 8.0 11.3 0.00 0.20 0.20 81 1011.2
20260508092352 7 184 4.8 11.3 0.00 0.20 0.20 81 1011.1
20260508091850 7 198 8.0 12.9 0.00 0.20 0.20 80 1011.2
20260508091346 7 201 11.3 14.5 0.00 0.20 0.20 80 1011.1
20260508090844 7 177 4.8 9.7 0.00 0.20 0.20 79 1011.1
20260508090342 7 192 6.4 12.9 0.00 0.20 0.20 79 1011.2
20260508085837 8 202 4.8 12.9 0.00 0.20 0.20 79 1011.2
20260508085334 8 181 6.4 11.3 0.00 0.20 0.20 79 1011.3
20260508084831 7 188 3.2 11.3 0.00 0.20 0.20 79 1011.2
20260508084328 7 134 4.8 11.3 0.00 0.20 0.20 79 1011.1
20260508083826 7 183 4.8 11.3 0.00 0.20 0.20 79 1011.2
20260508083323 7 190 8.0 14.5 0.00 0.20 0.20 79 1011.2
20260508082822 7 188 9.7 14.5 0.00 0.20 0.20 80 1011.1
20260508082320 7 120 3.2 9.7 0.00 0.20 0.20 80 1011.1
20260508081817 7 180 3.2 11.3 0.00 0.20 0.20 81 1011.4
20260508081314 7 182 4.8 8.0 0.00 0.20 0.20 81 1011.3
20260508080811 7 174 8.0 11.3 0.00 0.20 0.20 81 1011.3
20260508080309 7 208 1.6 11.3 0.00 0.20 0.20 81 1011.4
20260508075805 7 186 4.8 16.1 0.00 0.20 0.20 80 1011.4
20260508075307 7 156 6.4 19.3 0.00 0.20 0.20 80 1011.4
20260508074801 7 191 6.4 12.9 0.00 0.20 0.20 81 1011.3
20260508074257 7 194 6.4 11.3 0.00 0.20 0.20 81 1011.4
20260508073754 7 180 4.8 14.5 0.00 0.20 0.20 80 1011.4
20260508073252 7 181 3.2 12.9 0.00 0.20 0.20 80 1011.6
20260508072748 8 200 8.0 16.1 0.00 0.20 0.20 80 1011.5
20260508072245 7 205 9.7 16.1 0.00 0.20 0.20 81 1011.5
20260508071742 8 212 12.9 17.7 0.00 0.20 0.20 81 1011.7
20260508071241 8 196 6.4 9.7 0.00 0.20 0.20 81 1011.6
20260508070737 7 217 3.2 4.8 0.05 0.20 0.20 82 1011.7
20260508070236 7 206 4.8 12.9 0.05 0.20 0.20 83 1011.8
20260508065733 7 215 3.2 8.0 0.00 0.18 0.18 84 1011.9
20260508065231 7 207 8.0 11.3 0.00 0.18 0.18 85 1011.7
20260508064728 7 198 3.2 11.3 0.00 0.18 0.18 85 1011.6
20260508064227 7 183 6.4 16.1 0.00 0.18 0.18 85 1011.7
20260508063723 7 201 6.4 12.9 0.00 0.18 0.18 85 1011.6
20260508063221 7 200 11.3 17.7 0.23 0.18 0.18 84 1011.8
20260508062718 7 209 20.9 29.0 0.30 0.18 0.18 83 1011.7
20260508062216 7 158 8.0 19.3 0.00 0.15 0.15 83 1011.8
20260508061713 7 205 11.3 19.3 0.00 0.15 0.15 83 1011.8
20260508061210 7 199 8.0 17.7 0.00 0.15 0.15 83 1012.0
20260508060706 7 213 16.1 17.7 0.00 0.15 0.15 83 1011.9
20260508060204 7 201 19.3 19.3 0.00 0.15 0.15 82 1012.0
20260508055659 7 207 16.1 22.5 0.00 0.15 0.15 83 1012.2
20260508055156 7 208 16.1 19.3 0.00 0.15 0.15 83 1012.1
20260508054653 7 203 8.0 20.9 0.00 0.15 0.15 83 1012.1
20260508054151 7 200 14.5 17.7 0.00 0.15 0.15 83 1012.2
20260508053647 7 210 16.1 17.7 0.00 0.15 0.15 82 1012.2
20260508053145 7 206 9.7 17.7 0.00 0.15 0.15 82 1012.2
20260508052642 7 174 6.4 17.7 0.00 0.15 0.15 83 1012.2
20260508052139 8 197 12.9 24.1 0.00 0.15 0.15 82 1012.1
20260508051635 8 197 14.5 19.3 0.00 0.15 0.15 82 1012.2
20260508051131 8 210 16.1 27.4 0.00 0.15 0.15 82 1012.1
20260508050627 8 200 8.0 24.1 0.00 0.15 0.15 81 1012.2
20260508050125 8 213 20.9 27.4 0.13 0.15 0.15 81 1012.3
20260508045620 7 214 9.7 25.7 0.30 0.15 0.15 82 1012.0
20260508045119 8 208 16.1 25.7 0.13 0.10 0.10 80 1012.5
20260508044615 8 256 17.7 24.1 0.13 0.10 0.10 78 1013.2
20260508044111 8 271 8.0 14.5 0.18 0.08 0.08 79 1013.0
20260508043608 8 279 6.4 9.7 0.18 0.08 0.08 78 1013.1
20260508043106 8 251 4.8 24.1 0.05 0.05 0.05 77 1013.2
20260508042602 8 327 9.7 11.3 0.05 0.05 0.05 77 1012.9
20260508042100 8 331 3.2 6.4 0.05 0.05 0.05 78 1012.8
20260508041556 8 212 1.6 6.4 0.00 0.03 0.03 74 1012.7
20260508041052 8 181 4.8 9.7 0.13 0.03 0.03 74 1012.7
20260508040549 8 177 3.2 9.7 0.23 0.03 0.03 74 1012.5
20260508040047 8 210 6.4 12.9 0.13 0.00 0.00 72 1012.9
20260508035543 9 210 6.4 17.7 0.00 0.00 0.00 68 1012.4
20260508035041 9 204 9.7 16.1 0.00 0.00 0.00 67 1012.4
20260508034538 8 353 1.6 9.7 0.00 0.00 0.00 68 1012.2
20260508034035 8 191 4.8 8.0 0.00 0.00 0.00 69 1012.1
20260508033532 8 124 1.6 6.4 0.00 0.00 0.00 72 1012.1
20260508033031 8 198 1.6 4.8 0.00 0.00 0.00 74 1012.2
20260508032527 8 53 0.0 3.2 0.00 0.00 0.00 73 1012.1
20260508032025 8 146 1.6 4.8 0.00 0.00 0.00 71 1012.3
20260508031522 8 122 4.8 9.7 0.00 0.00 0.00 69 1012.4
20260508031017 8 188 4.8 8.0 0.00 0.00 0.00 68 1012.4
20260508030514 8 195 4.8 9.7 0.00 0.00 0.00 64 1012.6
20260508030012 8 164 4.8 8.0 0.00 0.00 0.00 65 1012.3
20260508025508 8 186 3.2 4.8 0.00 0.00 0.00 65 1012.4
20260508025005 8 206 3.2 4.8 0.00 0.00 0.00 65 1012.5
20260508024501 8 85 3.2 9.7 0.00 0.00 0.00 64 1012.7
20260508023958 9 165 3.2 9.7 0.00 0.00 0.00 63 1012.3
20260508023454 9 193 6.4 9.7 0.00 0.00 0.00 63 1012.4
20260508022952 9 125 1.6 4.8 0.00 0.00 0.00 64 1012.6
20260508022447 9 182 4.8 8.0 0.00 0.00 0.00 62 1012.6
20260508021944 10 196 6.4 8.0 0.00 0.00 0.00 62 1012.7
20260508021441 10 178 3.2 6.4 0.00 0.00 0.00 61 1012.6
20260508020936 10 200 4.8 8.0 0.00 0.00 0.00 61 1012.6
20260508020435 10 197 4.8 8.0 0.00 0.00 0.00 61 1012.7
20260508015931 10 199 4.8 8.0 0.00 0.00 0.00 62 1012.7
20260508015429 10 224 4.8 8.0 0.00 0.00 0.00 61 1012.6
20260508014925 10 203 3.2 4.8 0.00 0.00 0.00 60 1012.6
20260508014423 10 204 3.2 6.4 0.00 0.00 0.00 59 1012.5
20260508013918 10 185 1.6 8.0 0.00 0.00 0.00 61 1012.5
20260508013414 10 192 3.2 8.0 0.00 0.00 0.00 59 1012.6
20260508012912 10 200 3.2 12.9 0.00 0.00 0.00 59 1012.5
20260508012409 10 277 8.0 16.1 0.00 0.00 0.00 57 1012.6
20260508011907 10 228 3.2 11.3 0.00 0.00 0.00 61 1012.7
20260508011404 10 240 8.0 11.3 0.00 0.00 0.00 59 1012.5
20260508010901 10 245 11.3 16.1 0.00 0.00 0.00 56 1012.5
20260508010358 10 261 14.5 22.5 0.00 0.00 0.00 55 1012.4
20260508005855 10 252 14.5 25.7 0.00 0.00 0.00 55 1012.4
20260508005352 10 262 19.3 22.5 0.00 0.00 0.00 55 1012.5
20260508004848 10 273 19.3 20.9 0.00 0.00 0.00 56 1012.6
20260508004345 10 237 12.9 17.7 0.00 0.00 0.00 54 1012.4
20260508003841 11 253 14.5 19.3 0.00 0.00 0.00 52 1012.5
20260508003338 11 253 16.1 22.5 0.00 0.00 0.00 50 1012.3
20260508002836 11 271 22.5 30.6 0.00 0.00 0.00 47 1012.4
20260508002332 11 255 14.5 24.1 0.00 0.00 0.00 48 1012.1
20260508001828 11 286 9.7 25.7 0.00 0.00 0.00 46 1012.3
20260508001324 11 287 17.7 32.2 0.00 0.00 0.00 46 1012.4
20260508000821 11 268 8.0 30.6 0.00 0.00 0.00 46 1012.3
20260508000319 11 279 20.9 30.6 0.00 0.00 0.00 46 1012.2
20260507235814 11 253 16.1 32.2 0.00 0.00 0.00 46 1012.2
20260507235312 11 269 20.9 35.4 0.00 0.00 0.00 44 1012.0
20260507234808 11 277 29.0 40.2 0.00 0.00 0.00 43 1011.8
20260507234305 12 262 22.5 43.5 0.00 0.00 0.00 43 1011.9
20260507233801 12 268 12.9 37.0 0.00 0.00 0.00 40 1011.8
20260507233259 12 283 32.2 33.8 0.00 0.00 0.00 38 1012.0
20260507232757 12 322 6.4 30.6 0.00 0.00 0.00 39 1011.9
20260507232253 12 289 16.1 30.6 0.00 0.00 0.00 38 1011.7
20260507231750 12 310 22.5 25.7 0.00 0.00 0.00 36 1011.7
20260507231247 12 245 9.7 20.9 0.00 0.00 0.00 38 1011.6
20260507230743 12 262 17.7 24.1 0.00 0.00 0.00 36 1011.6
20260507230241 13 271 11.3 24.1 0.00 0.00 0.00 40 1011.7
20260507225740 13 301 9.7 30.6 0.00 0.00 0.00 34 1011.6
20260507225237 13 263 12.9 27.4 0.00 0.00 0.00 35 1011.5
20260507224733 13 263 14.5 19.3 0.00 0.00 0.00 33 1011.6
20260507224230 13 262 12.9 22.5 0.00 0.00 0.00 35 1011.7
20260507223726 13 253 16.1 25.7 0.00 0.00 0.00 36 1011.8
20260507223223 13 275 12.9 27.4 0.00 0.00 0.00 34 1011.9
20260507222719 13 257 24.1 40.2 0.00 0.00 0.00 36 1011.7
20260507222216 13 268 20.9 40.2 0.00 0.00 0.00 34 1011.5
20260507221713 13 287 11.3 19.3 0.00 0.00 0.00 32 1011.7
20260507221209 13 285 9.7 17.7 0.00 0.00 0.00 32 1011.7
20260507220706 13 307 4.8 19.3 0.00 0.00 0.00 32 1011.6
20260507220204 13 296 4.8 22.5 0.00 0.00 0.00 33 1011.8
20260507215700 13 280 11.3 19.3 0.00 0.00 0.00 35 1011.8
20260507215157 13 273 16.1 32.2 0.00 0.00 0.00 34 1011.9
20260507214654 14 261 9.7 27.4 0.00 0.00 0.00 33 1011.7
20260507214151 14 269 20.9 27.4 0.00 0.00 0.00 33 1011.6
20260507213647 13 316 17.7 29.0 0.00 0.00 0.00 32 1011.7
20260507213144 13 263 24.1 43.5 0.00 0.00 0.00 33 1011.6
20260507212640 13 313 8.0 40.2 0.00 0.00 0.00 32 1011.8
20260507212137 14 293 6.4 24.1 0.00 0.00 0.00 34 1011.7
20260507211634 13 315 14.5 27.4 0.00 0.00 0.00 36 1011.9
20260507211129 12 304 19.3 33.8 0.00 0.00 0.00 35 1011.6
20260507210628 14 289 24.1 46.7 0.00 0.00 0.00 36 1011.6
20260507210124 13 304 16.1 22.5 0.00 0.00 0.00 33 1011.7
20260507205621 13 295 17.7 35.4 0.00 0.00 0.00 36 1011.8
20260507205117 13 288 24.1 30.6 0.00 0.00 0.00 34 1011.8
20260507204613 13 280 38.6 45.1 0.00 0.00 0.00 33 1011.8
20260507204111 13 271 33.8 40.2 0.00 0.00 0.00 31 1011.7
20260507203609 13 305 8.0 35.4 0.00 0.00 0.00 38 1011.6
20260507203106 13 266 35.4 38.6 0.00 0.00 0.00 34 1011.7
20260507202601 13 283 22.5 35.4 0.00 0.00 0.00 36 1011.8
20260507202058 13 321 25.7 35.4 0.00 0.00 0.00 35 1011.9
20260507201553 12 320 38.6 40.2 0.00 0.00 0.00 38 1011.9
20260507201050 13 288 8.0 30.6 0.00 0.00 0.00 37 1012.2
20260507200545 13 309 16.1 24.1 0.00 0.00 0.00 38 1012.0
20260507200042 12 263 4.8 38.6 0.00 0.00 0.00 35 1012.1
20260507195539 12 338 48.3 48.3 0.00 0.00 0.00 36 1012.1
20260507195037 12 326 33.8 49.9 0.00 0.00 0.00 36 1012.0
20260507194533 12 333 22.5 41.8 0.00 0.00 0.00 36 1012.2
20260507194029 13 300 11.3 30.6 0.00 0.00 0.00 36 1012.1
20260507193526 13 300 24.1 38.6 0.00 0.00 0.00 33 1012.1
20260507193023 13 299 6.4 27.4 0.00 0.00 0.00 36 1012.1
20260507192519 13 304 11.3 40.2 0.00 0.00 0.00 33 1012.0
20260507192016 13 273 33.8 38.6 0.00 0.00 0.00 38 1012.0
20260507191511 12 308 16.1 35.4 0.00 0.00 0.00 41 1012.2
20260507191009 12 316 32.2 35.4 0.00 0.00 0.00 37 1012.3
20260507190506 12 310 12.9 33.8 0.00 0.00 0.00 38 1012.2
20260507190006 12 320 19.3 38.6 0.00 0.00 0.00 39 1012.2